Skip to main content

Ημερήσια Υδρολογικά Δεδομένα Υδρολογικού σταθμού Κολένη

Ημερήσια Υδρολογικά Δεδομένα Υδρολογικού σταθμού Κολένη.

Παρέχεται η δυνατότητα πρόσβασης σε resource δεδομένα μέσω του DKAN Datastore Web API με δυνατότητα επιστροφής των αποτελεσμάτων σε XML ή JSON.

Date Time CONDUCTIVITY WATER TEMPERATURE WATER DEPTH WATER LEVEL
07/05/2026 00:00:00 397.5 16.4 20.10 -0.45
06/05/2026 00:00:00 396.2 16.4 20.09 -0.44
05/05/2026 00:00:00 397.1 16.4 20.10 -0.45
04/05/2026 00:00:00 399.9 16.4 20.07 -0.42
03/05/2026 00:00:00 401.9 16.4 20.07 -0.42
02/05/2026 00:00:00 400.9 16.4 20.04 -0.39
01/05/2026 00:00:00 398.7 16.4 19.98 -0.33
30/04/2026 00:00:00 401.0 16.4 19.99 -0.34
29/04/2026 00:00:00 398.7 16.4 19.96 -0.31
28/04/2026 00:00:00 398.8 16.4 19.93 -0.28
27/04/2026 00:00:00 403.1 16.4 19.95 -0.30
26/04/2026 00:00:00 404.0 16.4 19.90 -0.25
25/04/2026 00:00:00 393.5 16.4 19.77 -0.12
24/04/2026 00:00:00 393.2 16.4 19.76 -0.11
23/04/2026 00:00:00 388.4 16.5 19.70 -0.05
22/04/2026 00:00:00 387.0 16.5 19.70 -0.05
21/04/2026 00:00:00 383.6 16.5 19.67 -0.02
20/04/2026 00:00:00 377.3 16.5 19.59 0.06
19/04/2026 00:00:00 382.2 16.5 19.55 0.10
18/04/2026 00:00:00 384.6 16.5 19.52 0.13
17/04/2026 00:00:00 378.0 16.5 19.51 0.14
16/04/2026 00:00:00 374.5 16.5 19.56 0.09
15/04/2026 00:00:00 363.9 16.5 19.44 0.21
14/04/2026 00:00:00 356.6 16.5 19.38 0.27
13/04/2026 00:00:00 352.6 16.6 19.34 0.31
12/04/2026 00:00:00 349.3 16.6 19.30 0.35
11/04/2026 00:00:00 348.3 16.7 19.21 0.44
10/04/2026 00:00:00 347.1 16.7 19.06 0.59
09/04/2026 00:00:00 346.1 16.7 19.02 0.63
08/04/2026 00:00:00 348.1 16.8 19.02 0.63
07/04/2026 00:00:00 348.6 16.8 19.00 0.65
06/04/2026 00:00:00 348.4 16.8 18.86 0.79
05/04/2026 00:00:00 347.2 16.8 18.63 1.02
04/04/2026 00:00:00 349.0 16.8 18.56 1.09
03/04/2026 00:00:00 344.2 16.8 18.32 1.33
02/04/2026 00:00:00 347.6 16.9 18.32 1.33
01/04/2026 00:00:00 344.8 16.9 18.36 1.29
31/03/2026 00:00:00 338.5 16.9 18.27 1.38
30/03/2026 00:00:00 337.6 16.9 18.14 1.51
29/03/2026 00:00:00 330.0 16.9 17.96 1.69
28/03/2026 00:00:00 329.7 16.9 17.96 1.69
27/03/2026 00:00:00 321.5 16.9 17.78 1.87
26/03/2026 00:00:00 322.5 16.9 17.79 1.86
25/03/2026 00:00:00 313.4 16.9 17.60 2.05
24/03/2026 00:00:00 313.5 16.9 17.65 2.00
23/03/2026 00:00:00 313.2 16.9 17.50 2.15
22/03/2026 00:00:00 313.7 16.9 17.48 2.17
21/03/2026 00:00:00 313.9 16.9 17.39 2.26
20/03/2026 00:00:00 314.1 16.9 17.30 2.35
19/03/2026 00:00:00 313.5 16.8 17.14 2.51

Additonal Information

Field Value
mimetype text/csv
filesize 148.19 KB
timestamp Fri, 05/08/2026 - 15:40